18.04.2024;22:00;42
18.04.2024;21:00;59
18.04.2024;20:00;83
18.04.2024;19:00;87
18.04.2024;18:00;88
18.04.2024;17:00;88
18.04.2024;16:00;84
18.04.2024;15:00;85
18.04.2024;14:00;82
18.04.2024;13:00;82
18.04.2024;12:00;81
18.04.2024;11:00;82
18.04.2024;10:00;74
18.04.2024;09:00;59
18.04.2024;08:00;52
18.04.2024;07:00;53
18.04.2024;06:00;54
18.04.2024;05:00;56
18.04.2024;04:00;50
18.04.2024;03:00;43
18.04.2024;02:00;42
18.04.2024;01:00;44
18.04.2024;00:00;63
17.04.2024;23:00;80
17.04.2024;22:00;79
17.04.2024;21:00;62
17.04.2024;20:00;72
17.04.2024;19:00;78
17.04.2024;18:00;87
17.04.2024;17:00;91
17.04.2024;16:00;84
17.04.2024;15:00;83
17.04.2024;14:00;87
17.04.2024;13:00;84
17.04.2024;12:00;79
17.04.2024;11:00;73
17.04.2024;10:00;71
17.04.2024;09:00;65
17.04.2024;08:00;56
17.04.2024;07:00;44
17.04.2024;06:00;49
17.04.2024;05:00;51
17.04.2024;04:00;50
17.04.2024;03:00;52
17.04.2024;02:00;58
17.04.2024;01:00;56
17.04.2024;00:00;61
16.04.2024;23:00;60
